Back to catalog

CZ-3C DEB

AliveHEO
NORAD 40194·DEBRIS·🇨🇳 China

Launched Feb 24, 2012 from Xichang Satellite Launch Center

Loading…

Next Passes (next 24 hours)

TLE

FreshSource: Space-Track

Epoch: Sep 11, 2026, 08:39 UTC

1 40194U 12008D   26254.36095146 -.00000141  00000-0  00000-0 0  9999
2 40194  20.9354 323.8082 6428016  98.5483 333.8297  2.12993939 99744

Track CZ-3C DEB in real time with AllMySat

Download on the App Store